Theta_e
350 349 349 350 348 349 350 350 350 349 349 349 349 350 350 350 350 349 349 349 349 347 344 343 341 340 339 340 339 338 339 340 342 342 342 342 342 343 345 345 345 346 346 348 349 348 348 348 346 346 347 346 345 345 345 346 346 346 345 344 343 343 343 342 341 341 342 342 343 343 343 341 340 338 337 336 335 335 337 339 341 342 342 342 340
351 350 350 350 350 351 351 350 350 349 349 348 349 350 350 350 350 349 349 349 349 346 343 342 339 338 339 339 339 338 337 338 340 341 342 341 341 341 343 344 344 346 346 347 349 349 348 348 346 346 347 347 346 346 345 346 346 346 346 345 344 343 343 342 341 341 341 342 343 344 344 343 342 341 339 338 338 337 336 336 338 339 341 342 341
351 351 350 350 351 352 351 351 350 350 349 349 349 349 350 350 349 350 349 350 349 345 342 341 338 338 338 338 339 338 337 337 338 340 341 340 341 340 341 343 344 345 345 346 348 349 349 348 348 347 347 347 347 347 346 346 346 346 346 346 346 344 343 343 342 342 342 341 342 342 343 344 343 342 341 340 339 338 338 337 336 336 337 339 340
352 352 350 350 350 352 351 350 350 350 349 349 349 349 349 350 350 350 349 349 347 344 343 341 339 338 337 338 339 338 338 338 338 338 339 340 341 341 340 341 342 343 344 345 346 348 349 349 349 348 346 346 347 347 347 347 346 346 346 346 346 345 344 343 343 343 342 341 342 342 342 343 343 342 341 341 341 340 340 340 339 338 338 338 339
353 352 350 349 350 351 351 351 351 351 349 349 349 349 349 350 349 349 349 348 345 343 343 341 340 339 337 337 339 338 338 338 336 336 337 338 340 341 340 340 340 341 342 344 344 346 349 348 347 347 346 345 346 346 347 347 347 347 347 346 346 346 345 344 345 344 343 342 341 341 341 341 342 342 341 341 341 341 340 341 341 340 340 340 339
353 352 350 349 349 351 351 352 352 351 350 350 350 349 349 349 349 349 348 348 346 344 343 341 340 339 337 339 339 339 338 337 336 335 336 338 340 341 340 340 339 339 340 342 343 344 347 348 346 347 347 346 346 346 346 347 347 347 347 346 345 346 346 346 346 345 345 344 342 341 340 339 339 340 340 340 339 340 339 341 342 341 341 341 340
353 352 350 350 350 351 352 353 352 352 351 351 350 350 350 350 351 349 348 347 346 345 342 341 340 338 338 339 338 339 339 338 337 336 337 338 340 341 341 341 340 339 339 340 341 342 344 345 345 346 346 347 348 347 346 346 346 345 346 345 345 345 346 346 346 346 345 345 344 343 342 341 340 339 339 339 338 338 338 339 341 341 341 341 341
353 353 351 351 352 352 353 353 352 352 352 351 351 351 351 351 351 350 348 347 346 344 342 341 341 337 337 338 338 339 338 338 338 337 338 339 340 341 341 341 341 341 340 339 340 340 341 342 344 345 346 346 347 347 346 346 346 346 345 344 345 344 345 345 345 345 345 345 345 344 344 344 343 342 341 340 339 339 338 337 338 339 339 339 339
354 354 352 352 354 354 354 353 351 352 352 351 351 351 352 351 351 350 349 348 346 344 341 340 340 338 338 338 338 339 339 339 339 338 339 340 341 341 341 341 342 341 340 341 341 340 339 340 342 344 344 345 346 346 346 346 347 347 345 346 345 344 344 344 344 345 345 345 345 344 344 344 344 344 343 342 341 341 340 339 339 338 338 338 338
354 354 353 353 355 355 354 354 353 352 352 352 352 352 352 351 351 351 350 349 346 344 342 340 339 339 338 337 338 339 339 339 339 339 339 340 340 341 341 341 341 340 340 342 342 341 339 338 340 341 343 344 345 346 346 347 347 347 347 347 347 345 344 343 344 345 344 344 344 344 344 344 345 344 344 343 343 343 342 342 341 341 340 340 340
354 355 354 354 355 355 355 354 353 353 353 352 352 351 351 351 351 351 350 348 346 344 342 339 338 338 337 336 337 339 339 339 340 339 340 340 340 339 340 341 340 341 341 342 342 342 341 341 341 341 341 342 344 345 345 346 347 346 347 348 347 346 345 345 345 346 345 344 343 344 344 345 345 345 344 344 345 345 344 344 344 343 343 343 344
354 355 355 354 355 355 355 354 353 354 354 353 352 351 351 351 351 351 349 346 345 344 340 337 337 337 338 338 338 339 339 338 339 339 339 340 340 339 339 339 339 340 340 340 341 341 342 342 343 343 341 340 342 343 344 345 345 346 346 347 347 347 346 346 346 346 346 345 344 344 344 344 345 345 344 343 344 345 345 345 344 344 344 344 345
354 354 355 355 355 355 354 354 353 354 354 354 354 354 352 352 352 351 348 345 345 342 338 338 338 338 338 339 338 339 340 339 339 339 339 339 340 339 338 338 339 339 338 338 338 337 339 340 342 343 341 339 340 341 342 343 344 344 345 345 346 346 346 345 346 346 346 345 345 345 345 345 345 345 345 343 343 344 344 344 344 344 345 345 345
354 354 355 355 355 354 353 353 352 353 355 356 356 354 352 352 351 349 346 345 344 340 338 339 339 340 339 338 340 341 339 340 340 340 339 339 340 339 338 338 338 338 338 338 335 332 333 337 340 340 339 339 340 341 341 342 342 343 344 345 345 345 345 345 345 346 346 345 345 345 345 346 345 345 345 345 344 344 344 344 344 344 345 345 345
355 355 355 355 355 354 352 352 351 352 355 356 356 353 351 352 350 347 345 344 343 338 337 338 339 340 339 340 345 344 341 340 341 340 339 339 340 339 337 338 339 338 338 336 333 328 327 329 333 334 335 336 338 339 340 341 341 341 341 341 340 341 343 345 345 346 345 345 345 345 345 345 345 345 345 345 345 345 345 345 344 344 344 345 345
355 355 355 355 355 354 352 351 351 352 353 355 356 353 352 351 348 346 344 341 340 338 336 337 339 340 340 342 343 343 347 343 337 337 338 340 341 339 337 339 339 339 338 335 331 327 323 323 325 329 333 334 336 336 338 340 338 335 335 330 326 328 333 338 343 344 345 345 345 345 344 344 344 344 343 344 344 344 344 344 344 344 344 345 345
355 355 355 354 354 354 353 352 352 352 353 355 356 354 352 349 346 344 341 338 338 337 336 337 339 340 340 344 343 345 351 344 337 337 336 339 342 339 338 339 340 340 338 335 331 328 323 321 323 326 331 333 333 334 336 336 332 328 327 322 317 318 320 326 333 337 338 338 337 336 336 337 338 339 340 342 341 342 343 343 343 343 343 344 344
355 354 354 354 354 355 354 353 352 352 353 355 356 354 350 347 344 341 338 337 337 337 338 337 338 339 338 341 343 344 346 342 341 341 334 334 337 339 339 338 340 340 338 335 332 329 324 323 325 326 328 329 327 328 330 330 327 322 320 319 317 316 315 317 320 322 323 323 322 321 322 323 325 327 329 332 333 336 338 339 340 341 342 343 343
354 355 355 354 355 356 355 354 353 353 354 355 355 352 347 344 343 339 337 338 338 338 339 339 338 338 336 338 339 339 339 340 342 343 338 334 332 335 338 339 340 340 338 335 332 329 326 325 327 327 327 327 325 325 326 326 325 323 321 321 320 318 316 314 314 314 315 315 315 315 316 316 316 317 318 319 321 323 325 327 329 330 332 334 335
355 355 355 355 356 356 355 354 354 354 354 354 354 349 343 342 341 339 337 338 338 339 339 339 339 337 335 336 338 338 338 338 338 338 340 339 334 333 334 337 340 340 338 335 332 329 327 327 328 328 328 327 327 328 327 327 326 325 325 325 324 323 320 318 318 318 317 318 318 319 320 319 317 316 315 316 316 316 317 317 318 319 320 321 322
355 356 356 356 357 357 356 355 354 353 353 353 351 346 341 340 339 338 338 338 338 339 339 339 340 338 334 334 337 338 337 337 335 333 336 338 338 336 332 333 337 338 337 335 332 330 327 328 329 329 329 328 328 329 328 328 328 327 327 326 326 326 324 324 324 324 323 324 324 325 326 324 322 318 316 316 316 316 316 316 316 316 316 316 317
355 356 356 356 357 357 356 357 355 352 351 351 348 344 340 338 336 338 340 339 338 338 338 339 339 338 335 333 336 338 336 335 335 333 332 333 336 336 331 330 332 333 335 333 331 330 328 328 329 329 330 329 328 329 329 329 329 328 328 327 327 327 326 326 326 326 327 327 327 327 327 327 325 322 319 317 317 316 316 316 316 316 316 316 317
356 356 357 357 357 357 358 358 355 351 349 348 345 342 341 340 337 338 340 340 339 338 336 338 338 338 336 334 335 336 335 335 335 333 331 330 334 335 330 329 330 329 330 330 330 331 329 328 329 329 330 329 329 329 330 330 330 329 329 328 328 328 328 328 327 327 327 327 327 328 328 328 326 324 323 322 321 320 319 318 316 316 316 316 316
356 357 357 357 356 358 359 357 354 349 347 346 343 341 342 342 341 340 340 339 340 338 336 337 338 337 337 335 335 336 336 336 335 333 332 330 333 333 329 330 331 329 328 328 330 330 329 328 329 329 330 329 329 330 330 330 330 330 329 329 329 329 329 328 328 328 327 327 328 328 328 329 328 327 327 327 327 327 326 324 322 320 318 317 317
357 357 356 356 357 359 359 356 352 348 346 344 343 341 342 343 343 341 341 340 339 338 336 336 337 337 337 336 336 336 336 336 335 334 334 331 330 331 331 332 333 331 330 330 329 330 329 328 329 330 330 329 329 330 330 330 330 330 330 330 329 329 329 329 329 329 328 329 328 329 329 329 329 329 329 330 329 329 329 329 328 327 325 323 322
357 357 356 356 357 359 358 354 351 347 345 343 342 342 342 343 342 340 340 340 339 338 337 335 335 336 338 337 337 337 336 336 335 334 334 332 330 331 333 334 333 332 333 332 330 330 329 328 329 330 330 330 330 330 330 330 330 330 330 330 329 329 329 329 329 329 329 329 329 329 330 330 330 330 330 330 330 330 330 329 329 329 329 328 328
356 356 356 357 358 359 357 354 350 347 346 345 343 342 343 343 341 339 339 340 340 339 338 335 333 333 336 337 337 336 335 336 335 333 332 332 331 330 332 337 337 335 334 334 334 332 331 330 330 330 331 332 332 331 331 331 331 330 330 329 329 330 330 330 330 330 330 330 330 330 330 330 330 330 330 330 330 330 329 329 330 330 330 330 329
356 356 357 357 358 358 356 353 350 347 347 346 344 342 342 342 340 339 340 340 340 339 337 335 333 332 334 336 336 335 335 335 335 334 332 331 331 330 330 334 338 340 339 338 337 334 332 332 331 332 332 333 333 332 333 333 332 332 330 329 329 330 331 330 330 330 330 330 330 330 330 330 330 331 330 330 330 330 330 330 330 330 330 330 330
355 356 357 358 358 356 354 352 350 348 348 348 346 343 342 342 340 339 340 340 340 339 336 335 334 333 334 336 336 335 335 336 335 334 333 332 331 331 330 330 333 341 344 344 340 334 333 334 333 333 333 332 332 332 332 333 333 332 330 330 331 331 331 331 331 331 331 331 331 331 330 330 331 331 331 331 331 330 330 330 330 331 331 331 331
355 356 357 357 357 355 353 351 349 349 349 349 347 344 343 343 341 340 340 340 340 338 336 336 335 334 334 335 336 335 336 336 336 335 334 333 332 331 332 331 331 335 339 342 341 334 331 333 333 333 332 331 331 332 332 332 333 332 331 331 332 332 332 331 331 332 332 332 332 331 331 331 331 331 331 331 331 331 331 331 331 331 331 331 331
355 356 357 356 356 354 353 351 350 349 349 349 348 345 344 344 343 341 340 340 340 338 337 337 337 336 334 334 334 335 336 336 336 336 335 334 333 332 333 333 333 333 332 334 337 334 331 332 333 333 332 332 332 332 332 332 332 332 332 332 332 332 332 332 332 332 332 332 332 332 332 331 331 331 331 331 331 331 331 331 332 332 332 332 331
355 356 356 355 354 353 352 351 350 350 350 350 349 346 345 345 344 342 340 339 340 339 337 337 337 337 335 333 333 335 336 336 336 336 335 335 335 334 334 334 333 334 332 331 332 334 333 333 333 332 331 331 331 331 331 331 330 331 331 331 331 331 332 332 331 331 330 330 331 332 332 332 331 331 330 330 330 330 330 330 331 331 331 331 331
355 355 355 355 354 353 352 352 351 350 350 350 348 346 345 345 344 342 340 339 339 339 338 338 338 338 337 335 333 335 336 337 336 336 335 335 335 335 334 334 333 333 333 332 332 333 333 333 332 331 332 332 331 330 330 331 331 332 332 331 330 330 330 330 329 328 327 328 329 330 330 330 330 330 329 329 329 329 329 330 330 330 330 330 330
355 355 355 354 353 353 352 352 351 350 349 349 348 346 346 346 344 342 340 339 338 338 338 338 338 338 337 336 334 334 335 336 336 336 336 334 335 335 334 334 334 333 333 334 334 334 334 333 332 332 332 332 331 331 331 332 332 332 332 332 331 331 330 330 328 326 325 326 327 328 329 329 329 329 329 329 329 330 330 330 330 330 330 330 329
355 355 355 354 353 352 352 351 351 350 350 349 348 345 345 345 344 343 341 339 338 338 338 338 338 338 337 336 335 334 334 335 336 337 336 336 335 335 333 333 334 334 334 334 335 335 335 334 333 333 333 332 332 332 333 333 333 333 333 332 332 333 332 331 329 327 326 325 326 328 328 328 328 328 328 329 329 329 329 330 330 330 330 329 329
355 354 354 354 353 352 351 351 350 350 349 349 348 346 344 343 343 343 342 341 339 338 337 338 338 338 338 336 335 335 334 335 336 336 336 336 335 334 334 334 334 335 334 334 334 335 334 334 334 334 332 332 333 333 334 334 333 333 333 332 333 333 332 332 331 330 328 327 326 327 327 327 327 328 328 329 329 328 327 327 327 327 327 327 328
355 354 354 353 352 352 351 351 350 350 349 349 348 347 345 344 344 343 343 342 340 338 338 338 338 338 338 337 336 336 336 335 336 336 336 336 335 334 334 334 334 335 335 334 334 334 334 335 334 334 333 332 333 333 334 333 333 332 332 331 331 332 332 332 331 331 329 328 327 327 327 327 327 328 328 328 327 325 324 323 322 322 323 325 326
355 354 354 353 352 352 351 351 350 350 349 349 348 348 347 346 345 344 343 342 341 340 338 338 338 338 338 337 337 337 336 336 336 336 336 336 335 335 334 334 334 335 335 335 334 334 334 334 334 334 333 332 333 333 334 334 334 333 332 330 330 331 332 332 331 330 329 328 327 327 326 326 326 326 325 323 322 321 319 319 318 319 320 321 322
355 354 354 354 353 352 351 351 351 350 350 350 349 349 348 346 346 345 343 342 341 340 339 339 338 338 337 337 337 337 336 336 335 335 335 336 335 335 334 335 334 334 335 335 334 334 334 333 334 333 333 333 333 334 334 334 333 332 332 331 331 331 331 331 330 329 328 328 327 327 326 325 324 323 322 320 320 319 318 317 317 317 317 318 318
355 355 355 354 353 353 352 351 351 351 350 350 349 348 347 346 345 344 343 342 341 341 340 339 339 338 338 337 337 337 337 336 336 336 335 335 335 335 335 335 334 335 335 335 335 335 334 334 334 333 333 334 334 334 334 334 333 332 331 331 331 331 330 330 329 329 328 327 327 326 325 324 323 321 320 319 318 318 318 318 318 318 319 319 319
356 355 355 355 354 353 353 352 351 351 350 350 349 348 347 346 345 344 343 342 342 341 341 340 339 339 338 338 337 337 336 336 336 337 336 335 335 335 335 334 334 335 335 334 334 335 334 334 334 334 334 334 334 334 334 333 331 331 331 331 331 330 330 330 329 329 328 328 328 327 325 323 322 320 318 318 318 318 319 319 319 319 320 320 320
356 355 355 355 355 354 353 353 352 351 351 350 350 349 348 347 346 344 343 343 342 342 341 341 340 339 338 338 338 336 336 336 336 337 337 336 335 335 334 334 334 335 334 334 334 335 335 335 334 334 334 333 333 333 332 331 330 330 331 331 331 330 330 329 329 328 328 328 328 326 324 321 320 318 318 318 319 319 319 319 320 320 320 320 320
356 356 356 355 355 354 354 354 353 352 352 351 350 350 349 348 347 345 344 344 343 343 342 341 340 339 339 339 338 337 336 336 336 336 336 336 335 335 334 334 335 335 334 334 334 335 335 335 334 334 333 332 332 332 331 331 331 331 331 331 330 330 329 328 328 328 328 328 327 325 322 320 319 318 319 319 319 319 319 319 319 320 320 320 319
357 356 356 356 355 355 354 354 353 353 352 352 351 350 349 348 347 346 345 345 344 343 342 341 340 339 339 339 338 337 337 337 337 336 336 335 335 335 335 335 335 334 333 333 333 334 334 334 334 332 332 331 331 331 331 331 331 331 331 331 330 330 329 328 328 328 329 327 325 323 321 319 319 319 319 319 320 320 320 319 319 319 319 319 319
357 356 356 356 355 355 355 354 354 354 353 352 351 351 350 349 348 348 346 346 345 344 343 341 340 339 339 339 339 338 338 338 338 337 336 335 335 335 335 335 334 333 333 332 332 332 332 332 332 332 332 332 332 332 332 331 331 331 331 331 331 330 329 329 329 329 327 324 322 321 320 319 319 320 320 320 320 320 320 319 319 319 319 318 318
356 357 356 356 356 355 355 355 354 354 354 353 352 352 352 351 350 349 348 347 346 345 344 342 341 340 340 339 338 338 338 338 338 338 337 336 335 335 335 334 333 332 332 332 331 331 331 332 333 333 332 332 332 332 331 331 331 331 331 331 331 330 329 329 327 325 323 320 320 320 319 320 320 320 320 320 319 319 318 318 318 317 316 315 314
357 357 356 356 356 355 355 355 355 354 354 353 353 353 352 352 352 351 349 348 346 344 343 343 342 342 340 339 338 338 338 338 338 338 337 336 335 335 335 333 331 330 330 331 331 331 332 333 333 332 332 331 331 331 330 329 329 329 328 328 328 328 327 325 323 321 320 320 320 319 319 320 320 320 319 318 317 316 315 315 313 312 310 310 311
357 356 356 356 355 355 355 355 354 354 354 354 354 354 353 353 353 351 350 347 345 344 344 343 343 342 340 339 338 338 337 337 337 337 337 336 335 335 333 330 327 328 330 331 331 331 331 331 331 331 331 330 329 328 327 326 325 324 324 324 323 323 322 321 320 320 320 320 319 319 319 320 319 318 317 314 313 312 311 310 309 309 311 313 314
357 356 355 356 355 355 355 355 354 354 354 354 354 353 353 354 353 351 350 347 344 344 344 343 343 342 341 339 338 337 337 336 336 337 337 336 335 334 331 327 327 328 330 330 330 330 330 330 330 330 329 328 327 326 325 324 324 322 321 320 320 320 321 320 320 319 318 317 316 317 319 318 316 314 313 312 310 310 309 309 310 312 314 314 314
357 356 356 355 355 356 355 355 355 354 354 354 354 353 354 353 352 352 350 347 344 344 344 343 342 342 340 339 338 337 336 336 336 337 337 335 334 332 328 326 328 329 328 329 330 329 330 330 330 329 327 327 326 325 324 323 322 320 319 319 319 320 320 319 318 317 315 314 314 316 317 316 313 312 312 311 311 310 309 310 311 312 312 313 314
357 356 356 355 355 355 355 355 355 355 355 355 354 354 354 353 353 352 350 346 343 343 344 343 341 341 339 338 338 337 336 336 336 337 336 334 332 329 326 326 328 328 327 327 328 329 330 331 330 328 328 327 325 323 321 320 319 318 318 319 318 317 316 315 315 315 315 314 313 314 315 314 312 312 311 312 312 311 310 310 310 310 311 313 314
Wind_Speed
13 12 11 12 11 10 9 9 8 8 9 10 9 8 8 8 6 4 2 2 3 2 1 1 2 3 3 4 4 4 4 6 7 8 7 7 6 7 8 8 9 11 13 13 14 14 14 14 13 13 13 13 12 12 12 11 11 11 11 11 10 10 10 10 10 9 9 9 9 10 9 9 9 8 8 7 7 7 7 7 7 7 7 7 8
13 12 12 13 12 11 10 9 9 9 10 10 9 9 8 8 7 5 4 5 5 3 2 2 3 4 4 4 4 3 1 4 6 8 8 7 7 6 7 8 8 10 12 13 13 14 14 14 14 14 13 13 12 12 12 12 12 12 11 11 11 11 11 11 11 10 10 9 10 10 9 9 10 9 9 9 9 9 9 8 8 8 8 8 8
13 12 13 13 13 13 11 10 10 10 11 10 10 9 8 8 7 6 7 8 7 5 2 3 5 4 3 3 4 3 1 2 4 7 8 8 7 6 6 6 7 8 10 12 12 13 14 14 14 13 13 12 12 12 12 12 12 13 12 12 12 12 12 11 11 11 11 11 11 11 10 10 10 10 10 10 10 10 10 10 10 10 10 10 9
14 14 14 14 15 14 12 11 11 11 11 11 11 10 9 8 9 8 8 9 7 5 3 3 5 3 2 1 2 2 1 1 3 5 8 8 8 8 6 5 7 7 8 10 10 12 13 13 13 13 13 13 13 14 13 13 13 12 13 13 12 13 12 12 12 12 12 12 12 12 12 12 11 11 11 11 11 12 12 11 11 11 11 11 11
15 15 15 15 15 15 14 12 12 11 12 13 12 11 10 10 10 10 9 8 6 5 3 3 5 0 1 2 2 2 1 1 3 4 7 9 10 9 7 6 6 7 7 8 9 10 11 10 11 12 13 14 15 15 14 14 13 12 13 13 13 13 12 12 12 12 12 12 13 13 13 13 13 12 12 11 11 12 12 12 13 13 12 12 12
16 15 15 15 15 15 15 14 13 12 13 14 13 12 11 10 11 11 10 9 8 6 4 4 4 1 1 2 1 2 2 2 3 3 6 10 10 9 8 7 7 6 6 7 7 8 9 8 8 10 12 14 14 14 14 14 14 14 14 14 14 13 12 12 12 13 14 13 13 13 13 13 13 13 12 12 11 12 12 12 13 13 13 13 13
17 16 15 16 16 16 15 14 13 13 14 14 14 13 12 11 11 10 9 10 9 6 4 4 4 2 2 1 1 1 2 2 3 3 6 11 10 9 8 8 7 7 6 6 6 6 7 8 8 8 10 13 13 14 15 15 15 16 15 15 15 14 13 13 13 13 14 13 13 13 14 14 14 14 14 13 13 13 12 12 13 13 13 14 13
18 17 17 17 17 17 16 14 13 14 14 15 14 14 13 12 11 10 10 10 9 6 5 4 5 4 2 1 1 1 1 1 3 5 7 10 9 9 9 8 8 8 7 6 6 6 6 6 7 7 8 11 12 12 13 14 16 17 16 16 15 15 15 14 14 13 13 13 13 14 15 15 15 15 15 15 15 14 14 14 14 14 14 14 14
20 19 18 18 18 17 15 14 14 14 14 15 15 14 13 13 12 11 10 10 9 6 4 3 5 6 3 1 1 1 2 1 4 6 8 9 9 9 9 9 9 9 8 7 7 6 6 6 7 7 7 8 9 10 11 12 13 15 16 15 15 15 16 16 15 15 14 14 14 15 16 16 16 16 17 17 16 16 16 16 16 16 16 15 15
21 20 19 19 18 17 16 15 14 14 14 14 14 14 14 13 13 11 11 11 10 7 5 3 4 5 4 2 1 1 1 2 3 7 9 10 10 10 10 9 9 9 8 8 8 7 6 6 7 7 8 8 8 8 9 10 11 12 13 13 14 15 16 17 16 16 16 16 16 16 17 17 17 17 17 17 17 17 18 18 17 17 17 16 15
22 21 21 20 19 17 17 16 16 15 15 15 14 14 14 13 13 12 12 11 9 7 5 4 4 4 4 4 4 3 1 2 4 7 10 10 11 10 10 10 9 9 8 7 7 7 6 6 7 7 8 9 8 7 7 8 10 11 10 10 12 14 15 16 15 15 16 17 17 17 18 18 17 17 17 17 17 18 19 18 18 17 17 16 15
22 23 22 21 19 19 18 18 17 16 16 15 15 14 14 13 13 11 11 10 9 7 5 4 4 4 4 4 5 4 2 3 5 7 9 10 11 11 11 10 9 9 8 7 6 6 6 6 6 6 7 8 8 7 7 7 8 9 9 8 9 11 12 14 14 15 15 16 17 17 17 18 17 17 18 18 18 18 19 18 18 18 17 15 15
23 24 23 22 21 20 20 20 19 18 17 15 14 13 13 12 12 11 11 11 10 8 6 5 4 3 4 4 5 6 4 3 4 7 8 11 14 13 12 11 10 9 8 7 6 5 5 4 4 5 6 6 6 6 7 7 8 8 8 8 8 8 8 10 12 13 14 14 15 15 16 18 18 17 17 18 18 18 19 19 19 19 17 16 16
23 24 24 23 22 20 20 21 20 19 17 15 13 12 12 12 12 12 13 12 11 9 8 7 4 3 3 3 3 4 4 2 4 7 8 12 17 15 13 12 11 10 9 7 5 4 4 4 4 4 4 5 5 5 5 6 7 7 8 8 8 8 7 7 8 9 10 11 13 14 14 16 16 16 17 17 17 18 19 19 19 19 18 17 18
23 23 23 23 22 21 21 21 20 19 17 15 13 12 13 13 13 14 14 12 10 10 10 9 6 5 3 2 2 1 2 2 4 6 7 13 19 16 13 13 12 11 10 8 5 3 3 3 4 4 4 4 4 4 4 3 2 3 4 5 5 6 7 7 7 7 7 8 9 10 12 13 13 14 16 16 16 18 18 18 18 19 18 17 17
23 23 23 23 22 22 21 21 20 19 18 16 15 14 14 14 15 15 14 12 11 11 11 10 10 7 3 1 1 2 2 2 2 3 7 15 19 17 14 14 14 13 11 8 5 3 2 2 2 3 4 4 4 3 2 2 1 1 1 2 2 3 4 5 6 6 5 6 6 7 7 8 8 10 11 11 13 15 15 15 16 17 16 15 15
24 24 23 23 23 23 22 21 19 18 18 17 16 15 15 16 17 16 14 13 13 11 11 11 12 10 5 2 1 1 2 2 2 2 5 14 18 18 16 15 15 14 12 9 6 4 3 3 2 3 5 4 3 2 3 3 1 1 1 1 2 2 2 2 3 4 4 5 6 6 6 6 6 6 7 8 9 10 10 11 12 13 13 13 13
25 24 24 24 24 23 22 21 19 18 18 17 16 15 15 17 18 16 14 13 12 11 11 12 12 12 10 6 3 2 3 3 2 2 3 8 12 15 17 17 17 15 13 10 7 5 4 3 2 3 4 3 1 1 2 2 1 1 1 1 2 3 3 3 2 2 2 3 4 4 4 4 4 4 5 6 7 8 9 10 10 11 11 11 11
26 25 24 24 24 23 22 21 19 18 18 18 17 16 17 19 17 15 14 13 12 11 12 12 11 11 11 9 5 3 5 5 3 3 3 3 6 11 14 18 19 17 15 13 9 6 5 4 3 3 3 2 1 1 0 1 1 2 2 3 3 3 3 3 3 3 3 3 3 4 4 5 5 4 4 4 4 5 7 8 9 9 9 10 10
27 26 25 25 25 24 22 21 20 19 19 19 18 17 18 18 17 15 15 14 13 12 13 13 12 11 9 8 5 5 7 6 5 6 4 3 4 5 9 15 19 19 17 14 12 9 7 5 4 4 4 3 2 1 1 1 1 0 1 2 3 4 3 3 3 3 3 4 4 5 6 6 6 6 5 5 5 5 6 7 7 8 8 8 8
28 27 27 26 25 24 22 22 21 20 20 19 18 19 19 18 18 17 16 16 14 14 14 15 15 12 10 10 8 6 6 5 6 6 5 5 4 3 7 10 13 18 19 17 14 12 9 6 5 5 5 5 4 2 1 1 1 1 1 1 2 3 3 3 3 3 4 5 6 7 8 8 7 6 6 6 6 6 6 7 7 8 8 8 8
29 29 28 27 25 24 23 22 22 22 21 20 20 21 19 18 17 17 17 17 16 15 15 16 17 15 12 12 11 9 7 5 6 5 5 5 4 4 9 10 10 16 20 19 17 15 12 9 8 7 7 8 6 5 3 3 3 3 2 3 3 4 5 5 5 5 5 6 7 9 10 9 8 7 7 7 7 7 7 8 8 8 9 9 9
31 30 30 28 26 25 24 23 23 23 22 22 23 22 21 19 18 18 18 18 18 16 15 16 17 16 14 14 14 12 10 8 8 9 6 4 4 4 9 12 12 15 18 19 19 17 14 12 11 10 9 10 10 8 7 6 5 5 5 5 5 5 6 7 7 8 8 9 9 10 11 11 9 8 8 8 8 8 9 9 9 10 10 10 10
32 31 31 29 27 26 25 25 25 24 23 23 24 23 22 21 21 21 20 20 20 18 16 17 18 17 16 16 16 14 13 11 11 12 10 9 9 6 7 9 10 13 16 17 19 19 18 15 14 13 12 12 12 12 10 9 9 8 7 7 7 7 8 8 9 10 10 11 11 12 12 12 11 9 9 9 9 9 9 10 10 11 11 12 12
33 33 32 31 29 28 27 27 27 25 24 24 24 24 23 23 23 23 22 21 21 19 18 18 19 18 17 17 17 15 15 13 11 12 12 12 13 9 6 5 5 9 12 14 17 19 20 19 16 15 15 15 14 15 14 13 12 11 10 9 9 9 10 10 10 11 11 11 12 13 13 13 13 12 12 11 11 11 11 11 11 12 12 13 13
35 34 33 32 30 29 28 28 28 26 25 24 24 25 24 24 23 24 24 23 23 21 20 19 20 19 18 18 18 17 16 16 14 13 12 13 14 12 8 3 1 5 6 9 12 15 18 20 19 17 16 16 16 16 16 16 15 14 13 12 11 11 12 12 12 12 12 12 13 13 14 14 14 14 13 14 14 14 14 13 13 14 14 14 15
36 35 33 32 31 29 29 29 29 27 26 25 25 25 25 25 24 24 24 24 24 23 21 21 21 21 20 19 18 17 16 16 15 14 14 13 13 15 13 6 1 1 3 5 8 11 16 17 18 19 17 15 16 17 17 18 17 16 15 14 13 13 14 15 15 15 14 14 14 14 14 14 14 14 15 15 15 15 15 15 15 16 16 17 17
36 34 33 32 32 31 30 30 29 28 27 26 26 27 27 26 26 25 25 26 26 24 22 21 21 21 22 21 19 17 15 14 14 14 15 15 14 15 16 13 7 1 2 3 4 8 15 15 14 16 16 14 14 15 16 16 16 15 16 15 15 14 15 16 16 16 16 16 15 15 15 15 15 15 15 16 16 16 16 16 16 17 17 17 18
35 34 34 33 33 32 32 31 30 29 28 28 28 28 28 27 27 27 26 27 26 25 23 22 21 21 23 23 21 18 15 13 13 12 12 14 15 15 16 16 13 6 2 2 4 7 12 14 13 11 10 9 8 9 10 11 11 13 14 15 14 15 15 16 17 18 18 18 18 17 17 17 17 17 17 17 17 17 17 17 17 17 17 17 17
36 35 34 34 34 34 33 33 32 31 30 30 30 30 29 29 28 28 27 28 27 26 24 23 22 21 22 23 22 19 16 15 14 12 11 12 14 16 15 16 16 11 7 4 5 8 11 13 13 10 7 6 5 5 6 7 8 10 12 13 14 14 14 14 15 16 17 19 19 19 19 19 19 19 19 19 19 18 18 17 17 17 17 17 17
36 35 35 35 35 35 35 34 33 33 32 32 31 32 32 31 30 30 29 29 29 28 26 25 23 22 23 24 23 21 18 16 15 15 13 12 13 15 15 15 15 13 12 7 3 6 9 10 11 9 7 7 6 6 7 7 8 8 10 12 12 12 11 12 13 14 16 17 18 19 19 19 19 19 19 19 20 19 19 19 18 18 18 18 18
37 37 36 36 36 37 37 36 35 34 34 33 33 34 34 33 33 31 29 29 30 30 28 26 25 24 24 24 25 23 19 17 17 17 15 14 15 15 15 15 14 13 12 10 6 6 8 8 7 6 6 6 7 8 8 8 8 8 9 10 11 11 12 13 14 15 15 16 16 17 17 18 18 18 18 19 19 19 19 19 19 18 18 19 19
37 37 37 37 37 37 37 37 37 36 35 35 35 35 36 35 34 32 30 29 31 31 31 29 27 26 26 25 25 24 21 18 18 17 17 16 15 15 15 15 14 12 11 11 9 9 9 9 8 7 7 7 8 9 9 9 8 8 9 10 11 12 13 13 14 14 14 15 16 16 17 17 17 18 18 19 19 19 19 19 19 18 19 19 19
37 38 38 38 38 38 38 38 38 37 37 36 35 35 36 36 35 33 32 31 32 33 33 32 30 28 27 26 25 24 23 21 18 17 17 17 16 16 16 15 14 13 12 12 11 10 10 11 10 10 9 9 10 10 10 10 9 9 11 11 12 12 12 13 14 14 13 13 15 16 17 17 18 18 18 18 19 19 18 18 19 19 19 20 20
37 38 38 38 38 38 38 38 38 38 38 37 36 36 37 37 36 36 35 34 33 33 34 34 32 30 28 27 26 24 23 22 19 17 17 18 18 17 17 17 16 15 14 14 13 12 11 11 11 11 11 11 12 12 11 11 11 12 13 14 13 13 13 14 15 15 13 14 14 15 17 17 17 18 19 19 19 19 18 19 19 20 20 20 21
37 37 37 38 38 38 38 38 38 38 38 37 36 37 38 38 38 38 37 36 35 34 35 34 33 32 31 30 28 26 23 22 21 18 17 18 19 18 17 17 18 17 16 15 15 14 13 12 12 12 12 12 13 12 12 13 14 14 15 15 16 16 15 14 15 15 14 15 16 16 16 17 17 18 18 18 19 20 21 22 23 23 22 22 21
36 36 36 37 37 38 39 39 39 38 38 37 37 37 38 39 39 39 38 37 36 35 35 34 33 33 32 32 31 28 25 24 23 21 19 18 18 18 18 18 19 18 17 17 16 16 15 15 15 14 13 14 15 15 14 14 16 16 16 17 18 18 17 16 15 15 14 15 17 17 17 17 17 18 17 18 19 20 21 22 23 24 24 23 22
36 36 36 37 38 38 39 39 39 38 37 37 38 39 39 40 40 39 38 37 37 36 35 34 34 33 33 32 32 30 28 26 26 25 23 21 20 20 20 19 18 18 18 18 17 16 16 16 17 17 17 17 17 17 16 15 16 16 17 19 20 19 17 16 16 15 14 15 17 17 17 16 16 17 17 18 20 21 22 22 23 23 24 24 24
36 36 36 37 38 38 38 38 38 37 36 37 38 39 40 40 40 40 38 37 37 37 36 36 35 34 34 32 32 31 30 29 28 26 24 22 22 22 21 19 19 19 18 18 17 16 16 17 18 19 20 19 19 19 18 15 14 15 17 19 21 19 16 16 16 16 16 17 17 16 16 16 16 17 19 20 21 21 21 21 21 21 21 22 22
37 37 37 37 36 36 36 36 36 36 36 38 39 40 40 40 40 39 38 37 37 37 36 36 36 36 34 33 32 32 32 31 29 27 24 22 22 23 22 19 19 19 17 17 16 15 16 17 19 21 20 20 19 19 19 15 14 15 16 16 18 18 17 17 17 17 18 18 18 17 16 17 18 20 22 21 19 18 17 17 17 17 16 16 17
37 36 36 35 34 34 34 34 35 35 37 39 40 40 40 39 39 38 37 36 37 37 36 36 36 35 34 33 32 30 30 31 30 27 24 23 22 23 22 20 20 19 17 16 15 15 16 18 20 20 19 20 21 21 19 16 15 17 17 15 16 18 18 18 18 17 17 19 19 18 17 17 20 21 21 19 16 16 16 15 15 16 16 16 16
35 34 34 33 33 34 34 34 34 35 38 40 41 41 41 40 38 37 36 36 37 37 37 36 35 33 32 32 31 29 29 30 29 26 25 23 22 22 21 20 20 19 16 15 14 15 16 17 19 19 17 19 23 22 18 16 16 17 17 16 17 18 17 18 17 16 17 19 18 17 18 19 20 20 18 17 17 16 16 16 16 17 17 17 16
34 33 33 33 34 34 35 35 35 37 39 41 41 41 40 40 38 37 36 37 38 38 38 36 34 31 30 30 29 28 28 29 28 25 25 24 23 22 21 19 19 18 16 15 15 15 16 17 19 19 17 19 23 21 16 16 17 17 17 16 17 18 17 14 13 14 17 18 15 16 20 21 20 18 17 17 18 17 17 17 17 17 18 18 18
33 33 33 34 35 35 35 36 36 38 40 41 40 40 40 39 39 38 37 37 38 38 38 36 33 30 29 29 28 28 29 30 27 25 25 25 23 21 20 18 17 16 15 15 14 15 16 17 18 18 17 18 20 19 16 16 17 16 16 15 16 17 17 14 13 15 17 17 15 16 21 21 18 17 17 17 18 17 17 17 17 17 18 19 20
34 34 35 35 35 35 36 36 38 40 40 40 39 39 39 39 39 39 38 38 38 38 37 35 33 32 32 30 29 28 28 28 26 25 25 24 22 20 18 17 16 15 15 14 13 14 16 15 16 17 17 16 17 18 17 15 15 15 15 15 16 16 16 16 17 17 17 17 17 17 18 18 17 16 17 18 17 15 15 15 16 17 19 21 23
34 35 36 36 36 37 37 37 39 39 39 39 38 38 39 39 39 39 40 39 38 37 36 35 35 35 34 32 31 29 26 24 25 26 25 24 21 20 18 17 16 16 14 13 13 15 15 14 15 17 17 16 16 17 16 14 15 15 15 16 16 16 15 16 17 18 17 18 17 14 12 15 16 17 19 18 15 15 16 17 20 22 25 26 26
37 37 37 37 37 38 38 38 38 38 38 38 38 38 39 39 38 39 40 39 37 34 34 33 34 35 34 32 31 29 25 25 26 27 26 24 21 19 18 17 16 15 13 12 13 13 12 11 12 15 17 16 15 14 14 13 12 12 11 12 12 13 15 15 16 17 17 16 14 10 9 13 15 16 18 18 17 19 22 24 26 27 25 23 20
37 37 36 37 38 38 38 38 38 37 37 37 38 39 39 38 38 39 39 38 34 32 32 32 32 33 31 30 29 27 25 26 28 27 26 24 21 19 17 16 15 14 12 12 12 11 10 10 13 15 16 14 11 10 9 8 7 7 7 9 10 11 13 14 14 16 15 13 13 10 10 12 12 13 18 20 21 23 25 26 24 21 17 16 16
37 37 37 37 37 38 38 38 38 37 37 37 38 38 37 37 37 37 38 36 33 31 32 32 31 30 29 29 29 26 24 28 29 27 26 23 20 18 16 15 14 13 12 11 10 9 10 11 12 12 10 8 6 6 6 6 8 9 10 12 13 12 12 10 9 10 11 13 14 11 10 11 12 14 19 22 22 22 23 22 18 15 15 17 19
38 37 37 36 36 38 38 38 38 37 37 38 38 37 37 36 35 35 36 36 32 31 31 29 28 28 28 28 27 23 24 29 29 26 24 22 19 17 16 14 13 12 11 10 8 8 9 10 9 8 7 6 8 9 10 11 12 12 13 14 12 10 9 7 7 9 10 13 14 10 8 12 14 15 18 20 19 20 21 18 16 17 19 20 20
36 36 36 36 36 37 37 37 38 37 37 38 37 36 35 33 31 33 34 33 30 29 29 27 25 25 25 26 25 24 26 29 27 24 22 20 18 16 14 13 12 11 11 10 8 8 8 8 7 8 9 11 13 14 14 13 13 12 11 9 6 5 5 6 8 8 7 8 11 10 10 14 16 17 17 14 11 14 18 17 17 21 22 21 21
Wind_Direction
215 216 219 223 221 223 229 233 228 217 210 205 204 210 214 213 213 229 256 255 263 260 229 218 242 230 198 215 232 234 243 242 229 212 197 186 192 202 208 211 213 212 211 213 210 206 205 203 203 203 204 204 202 202 204 202 200 202 205 208 207 207 209 209 211 213 213 210 206 210 212 208 213 218 220 223 222 220 222 228 230 231 233 242 252
216 218 223 224 222 226 229 230 227 219 214 209 207 215 219 222 227 249 272 268 267 262 229 175 165 158 170 218 229 204 224 245 226 212 205 198 194 199 209 212 215 215 215 218 214 212 212 207 204 205 206 209 206 205 207 207 206 206 208 211 212 212 213 213 214 215 214 213 213 217 220 219 222 225 228 233 235 232 230 232 234 236 238 243 252
219 222 226 226 225 227 227 228 225 216 217 213 212 221 224 230 243 260 270 274 268 253 228 160 142 126 141 220 228 198 205 272 238 215 209 209 202 198 206 213 218 218 219 223 219 218 220 213 207 206 209 213 211 210 211 212 211 211 212 213 215 216 216 217 218 219 219 219 220 223 225 227 231 232 233 236 240 239 238 239 239 240 243 245 249
222 227 229 229 228 227 225 225 222 215 217 216 216 226 232 239 249 259 265 272 263 239 243 179 156 119 94 157 167 150 156 296 280 233 211 210 208 200 201 212 218 215 218 225 226 228 225 217 216 215 212 214 214 212 214 219 218 216 216 216 219 219 217 219 221 221 223 225 227 228 230 232 235 237 237 238 239 240 241 243 244 244 247 248 251
224 229 232 232 230 227 226 223 218 217 218 216 220 228 235 243 250 257 262 263 251 239 258 197 175 124 66 154 144 82 65 194 261 251 210 203 206 200 197 205 212 208 212 219 224 233 230 219 223 223 218 219 219 214 214 220 221 221 222 221 221 223 223 223 223 223 225 228 231 233 236 237 239 241 241 241 241 240 242 244 245 245 248 250 253
224 228 231 233 229 225 225 222 218 220 218 217 223 229 236 245 250 255 254 252 250 249 249 196 181 179 108 132 106 66 52 131 198 236 194 188 195 199 198 200 204 203 206 212 215 228 234 230 231 230 226 226 225 221 219 221 223 224 225 224 223 225 228 230 229 229 229 229 233 236 239 240 242 243 243 243 244 244 244 246 246 245 247 250 253
222 224 226 227 225 222 223 224 226 224 219 220 225 230 237 245 248 249 246 248 252 247 243 215 190 176 150 105 59 101 63 98 159 194 180 176 182 194 203 204 203 204 205 209 209 213 225 233 238 234 228 230 227 224 226 226 228 229 227 226 226 226 229 232 234 235 235 234 236 240 242 242 243 243 244 244 245 246 246 248 249 248 247 250 253
220 221 223 222 220 221 223 226 229 226 222 222 224 230 237 244 248 246 242 247 249 238 248 245 204 192 195 356 13 160 236 70 139 174 177 169 176 192 203 206 203 204 206 206 206 206 211 219 233 235 228 233 235 233 234 231 231 236 234 230 230 230 231 234 237 239 238 239 241 243 244 246 246 245 245 245 245 247 247 247 249 249 249 252 255
222 221 222 221 220 221 223 225 228 227 224 224 226 232 239 244 247 244 240 244 245 232 232 233 202 206 223 269 58 131 199 190 138 164 175 167 175 189 193 195 197 203 208 209 208 210 210 209 220 234 234 237 242 241 240 238 236 239 238 235 235 235 235 237 240 242 241 243 246 249 250 250 251 251 250 248 247 247 247 247 247 247 248 249 253
224 223 222 223 225 224 224 227 230 229 228 229 233 235 238 242 243 241 241 243 241 225 211 210 205 209 219 228 214 154 189 217 159 161 170 168 172 180 180 181 187 197 206 209 210 213 217 218 220 231 236 237 244 244 241 244 245 245 243 238 234 235 239 240 242 244 245 246 248 252 255 255 255 256 255 256 254 253 251 250 250 250 251 251 253
227 225 223 225 228 227 227 230 232 231 230 234 236 235 235 235 236 238 243 242 229 212 207 217 220 211 218 225 221 218 196 197 187 170 170 171 170 172 173 173 178 184 192 198 206 212 215 225 229 231 235 234 239 247 243 246 251 254 256 248 239 237 241 242 241 245 249 251 251 252 255 256 257 260 262 264 263 262 259 258 259 260 260 262 264
228 226 227 229 231 230 230 232 234 233 233 236 236 236 236 233 234 237 239 232 214 208 208 209 212 206 208 213 218 236 210 163 181 181 183 184 177 176 173 171 174 175 177 181 188 198 204 217 225 226 231 230 233 242 243 247 253 255 259 258 253 247 243 241 240 242 246 251 253 253 254 255 256 260 263 263 260 261 263 266 267 265 264 266 268
228 228 229 231 232 233 233 232 233 234 237 240 241 242 240 235 235 236 231 221 212 208 197 194 207 216 219 225 241 251 231 181 182 187 192 194 189 183 177 176 177 173 173 174 174 184 199 207 210 210 214 217 223 230 235 247 253 253 255 255 257 258 254 250 246 243 244 247 250 254 254 254 255 257 262 264 264 264 266 268 269 270 272 272 270
229 228 230 231 232 233 232 232 235 236 238 239 241 241 235 231 230 226 218 214 214 205 193 197 212 225 222 220 251 249 222 196 180 186 191 192 191 186 181 182 180 178 178 175 172 178 192 197 190 190 196 202 209 215 224 242 252 253 255 257 257 258 259 259 254 248 247 248 251 256 256 255 256 258 261 264 268 269 268 268 269 271 274 274 273
229 229 231 231 231 232 232 234 235 236 236 235 235 231 226 226 221 213 209 210 212 205 198 206 209 201 178 166 209 198 188 192 167 177 190 188 188 185 184 189 186 186 187 177 167 164 183 196 191 195 206 210 211 215 221 227 249 258 257 262 264 260 257 259 261 261 261 260 258 260 259 258 257 257 260 262 266 269 269 270 271 271 272 272 271
231 231 232 232 232 233 234 234 235 237 237 234 233 229 226 222 213 206 209 210 207 203 204 211 210 198 157 113 167 129 180 228 135 148 186 187 187 186 188 195 192 193 191 178 163 158 174 171 178 212 219 216 211 204 194 182 179 319 291 308 313 284 265 257 260 270 279 281 280 279 279 279 269 264 267 269 270 270 271 274 273 272 272 273 272
232 232 233 234 233 233 235 236 236 237 236 234 234 236 230 217 207 205 209 208 202 202 208 215 217 215 206 158 106 120 216 223 90 86 176 184 189 191 194 200 200 199 195 186 177 174 173 152 165 231 236 233 227 205 187 181 198 241 242 303 2 2 338 274 257 266 277 284 293 300 299 297 289 281 279 278 280 280 282 284 280 279 279 279 277
232 233 233 234 233 233 235 237 237 235 235 233 235 237 223 207 204 206 206 205 204 208 214 217 221 226 228 221 227 249 201 167 99 77 154 182 193 195 198 204 207 205 200 197 199 194 181 167 188 251 252 251 242 215 207 196 186 144 143 91 30 15 13 9 342 318 308 305 314 323 322 317 311 298 289 285 288 287 284 284 283 286 287 285 283
232 232 233 233 233 233 234 236 235 234 234 233 233 228 212 203 206 207 205 205 209 216 217 216 218 225 231 231 241 233 179 165 161 148 135 184 197 196 204 207 207 209 206 205 211 206 192 188 218 259 256 238 182 142 199 186 152 107 89 61 39 20 15 14 10 6 359 1 2 359 354 347 342 335 327 316 304 295 289 289 289 290 288 287 288
231 231 232 233 232 232 233 234 233 233 231 231 229 216 206 206 209 208 208 210 213 221 221 216 215 219 224 220 209 181 177 183 189 169 139 158 192 197 207 208 207 209 209 211 215 213 205 205 227 251 249 231 198 153 101 131 158 114 43 32 33 25 22 21 15 14 7 5 2 358 353 344 337 333 332 332 328 322 317 313 312 309 306 304 301
229 230 231 232 231 231 232 231 231 231 228 227 220 207 204 207 208 208 210 212 215 222 224 220 217 218 216 209 197 185 187 190 191 178 146 157 186 198 194 200 213 217 214 214 216 215 216 223 233 247 249 242 234 222 218 238 251 264 312 340 357 2 2 354 349 353 353 349 345 345 343 337 330 324 321 323 326 328 329 329 328 326 324 321 318
228 228 230 230 230 231 231 229 230 228 223 219 211 204 204 206 206 209 212 214 216 219 223 222 219 219 217 210 203 199 193 186 191 188 159 158 178 193 185 182 204 221 219 218 218 216 219 228 235 244 250 248 246 249 258 271 278 275 279 292 305 320 331 331 329 328 328 330 331 334 337 335 327 321 319 319 319 321 323 325 328 330 331 331 329
229 228 228 228 228 230 230 229 229 225 219 214 209 206 206 206 209 214 217 218 219 219 220 220 218 219 220 215 212 209 203 198 198 192 178 160 163 179 189 189 200 215 218 220 222 219 219 228 237 244 251 254 253 256 264 271 278 282 281 283 292 304 317 322 322 320 319 319 321 324 331 334 329 322 320 320 321 321 321 321 322 323 325 327 329
227 226 226 225 226 227 228 227 225 221 216 213 211 210 210 212 215 219 221 220 220 219 216 215 216 219 220 217 218 222 221 217 208 200 198 192 182 172 176 184 203 218 220 223 225 224 222 226 237 245 250 255 258 261 265 268 269 275 280 282 290 297 305 314 319 319 317 317 318 320 323 327 327 320 317 317 317 319 320 320 320 319 319 320 321
223 223 224 223 223 224 225 224 221 217 214 213 214 213 213 217 220 221 222 221 221 222 221 218 217 219 221 218 218 226 232 231 225 216 214 201 186 174 164 165 192 212 220 227 228 229 229 230 238 248 251 252 258 263 266 268 269 270 274 279 286 292 295 302 309 311 309 307 309 312 316 320 320 316 313 312 311 311 312 312 313 315 314 315 315
221 222 223 222 222 223 224 223 219 216 214 214 217 216 216 220 221 220 222 223 223 226 229 227 223 221 221 219 220 227 233 234 234 230 225 207 188 176 164 137 168 201 214 228 227 230 233 235 238 245 252 254 259 265 266 269 271 271 272 277 283 288 291 294 299 302 301 299 299 301 307 312 314 313 310 308 308 307 306 306 306 307 307 307 308
222 223 223 222 222 222 222 221 219 217 215 215 218 219 218 220 223 223 223 224 224 228 231 230 227 224 222 222 223 228 233 233 235 238 236 227 212 196 181 157 119 262 259 244 234 235 238 240 240 243 251 259 264 268 270 271 271 271 272 275 282 288 291 292 295 297 297 296 294 293 296 304 309 311 310 309 307 306 305 305 304 303 303 302 302
223 223 223 222 222 221 220 220 219 218 216 216 218 219 219 220 223 225 224 223 224 228 231 229 227 224 223 224 225 228 234 235 238 243 239 237 235 221 202 186 176 203 296 277 267 246 238 240 244 244 249 257 264 266 267 268 267 267 266 269 278 288 294 296 296 297 297 296 294 291 290 295 301 306 308 308 308 306 304 304 304 303 301 300 299
223 223 223 222 222 221 220 220 220 219 218 218 219 220 220 221 222 224 224 223 226 229 229 228 227 225 223 224 225 228 232 235 242 246 239 235 234 229 221 211 200 186 175 240 260 242 233 237 239 239 240 247 257 260 260 262 263 265 265 267 275 285 290 294 294 295 296 295 295 294 292 292 295 298 301 302 303 303 303 302 301 300 299 298 298
222 223 223 223 222 221 220 220 220 221 220 220 220 221 222 223 224 225 226 226 228 230 229 229 230 229 226 226 227 228 229 233 241 245 240 235 230 227 228 226 219 209 193 196 243 242 233 233 232 229 230 235 245 256 257 257 260 266 268 270 276 282 286 289 291 294 295 295 296 296 295 294 294 295 297 297 298 299 300 300 299 298 297 296 295
223 223 222 222 221 220 219 220 221 222 223 221 222 222 222 225 226 228 229 228 229 230 230 231 232 231 229 229 230 229 229 234 238 238 238 234 230 228 228 226 226 228 221 207 224 247 234 228 228 227 229 237 248 257 257 258 261 265 269 273 278 283 290 295 299 301 301 299 298 298 299 299 298 299 300 301 302 301 300 299 298 297 296 295 294
223 222 222 222 221 220 219 219 220 221 223 223 223 223 223 226 228 229 230 228 229 231 231 232 233 232 231 230 231 231 231 234 233 232 236 236 232 230 230 229 229 234 235 222 219 245 244 236 234 233 238 254 264 264 263 266 269 273 278 284 286 289 294 299 302 304 304 303 302 301 301 302 304 305 306 307 308 307 305 302 300 298 297 297 296
222 221 222 222 222 221 219 219 219 220 222 223 224 224 223 226 228 230 230 228 229 232 232 233 233 232 233 232 233 232 232 235 236 237 240 238 234 233 234 234 233 233 235 230 228 243 251 248 250 256 260 269 275 275 278 281 280 284 290 292 292 293 296 297 298 299 301 306 307 307 305 303 302 302 303 305 306 305 304 301 298 297 296 297 297
222 220 221 221 221 221 219 219 219 220 222 224 224 224 223 225 227 229 229 228 230 231 231 232 232 232 233 234 233 233 232 235 240 242 241 236 236 238 235 235 236 235 237 238 235 238 245 250 258 266 270 274 279 284 288 288 288 291 292 291 289 290 294 296 297 297 301 306 308 309 309 306 303 301 300 301 303 303 303 300 297 296 296 297 297
222 221 221 221 220 220 219 219 220 220 222 223 224 224 223 224 226 227 228 229 230 231 230 231 231 230 232 233 234 232 231 233 237 240 239 236 236 237 235 236 238 238 240 244 242 240 245 255 263 269 273 278 284 289 292 289 288 289 290 289 286 284 288 293 296 301 308 312 309 306 305 302 299 298 297 298 300 302 302 301 299 298 297 296 295
221 220 221 220 220 219 218 219 220 221 221 222 223 224 224 224 225 227 228 230 231 231 232 233 232 230 230 232 233 233 230 230 232 234 232 230 231 232 234 239 239 240 244 247 249 250 254 260 266 270 275 280 285 289 289 287 287 287 289 291 290 288 290 291 293 297 304 309 309 305 301 298 294 293 293 295 297 299 300 300 300 299 298 295 292
220 220 219 219 219 218 219 219 220 221 221 222 222 223 224 225 226 227 229 230 231 233 234 235 234 233 232 232 233 233 231 229 229 230 227 225 227 231 236 239 240 242 245 246 248 252 253 257 265 270 273 277 281 284 283 283 285 287 287 291 293 292 291 292 293 294 296 301 306 307 304 299 294 292 294 297 298 299 299 299 299 298 297 296 294
219 220 219 219 219 219 220 221 221 221 222 222 223 224 225 225 226 227 229 230 232 234 235 236 236 236 235 234 234 233 232 231 229 228 228 228 231 234 236 238 238 240 243 244 246 250 252 257 265 269 271 272 275 278 279 279 281 284 289 295 298 296 292 293 295 296 298 301 306 309 308 304 301 301 304 306 305 303 301 299 297 294 291 291 292
217 218 219 220 220 221 222 222 222 223 222 223 224 225 225 225 225 226 227 229 231 234 236 237 238 239 238 235 234 234 234 234 233 231 231 231 233 234 233 233 234 237 241 243 245 248 252 257 260 263 267 269 270 273 276 275 274 278 288 296 299 298 295 294 294 295 299 302 305 309 309 309 310 312 312 310 307 303 302 300 298 296 295 294 294
217 218 220 221 221 222 222 223 223 223 223 224 225 225 225 225 225 226 226 227 230 233 235 237 238 239 238 236 235 236 236 237 236 235 234 234 232 230 228 230 234 237 240 244 246 248 251 255 258 261 264 267 269 272 274 273 272 281 290 292 291 293 296 293 290 293 297 302 305 307 306 308 313 314 313 311 309 308 307 306 304 304 307 307 306
216 218 220 221 221 221 222 223 223 223 224 226 226 225 225 225 225 226 226 226 229 232 235 237 238 238 237 236 235 236 238 240 239 238 238 238 234 229 229 233 236 236 239 243 245 248 250 250 253 257 260 266 271 273 272 273 279 288 294 289 281 284 289 287 285 289 293 297 301 303 305 311 313 313 313 313 314 315 313 309 307 308 311 312 308
216 217 218 220 221 221 222 222 222 223 225 227 228 227 227 226 226 225 226 227 230 232 235 237 238 237 236 235 235 237 241 241 237 235 236 237 235 235 237 239 235 233 234 239 244 248 248 245 246 251 255 263 270 273 274 280 287 289 290 286 281 281 283 282 283 287 291 294 296 298 304 312 311 310 313 316 316 317 314 308 305 305 308 307 305
215 215 216 218 220 221 222 222 223 224 227 229 229 229 229 229 227 226 227 229 230 232 234 236 236 236 235 233 233 236 240 238 233 232 234 236 235 236 237 235 233 233 234 238 244 246 245 243 246 250 252 259 269 275 281 289 293 292 291 288 283 280 279 276 275 280 289 293 291 292 302 310 311 310 314 315 315 315 310 304 302 303 306 307 307
214 214 215 217 218 220 221 222 223 226 228 230 230 230 230 230 229 228 229 230 232 232 234 234 234 236 237 233 232 235 236 233 231 233 235 236 234 231 230 230 233 238 242 246 250 250 250 249 251 255 257 261 272 281 287 293 296 296 295 290 284 280 276 269 264 272 286 293 290 289 298 307 311 312 313 313 313 311 306 302 301 302 305 307 305
213 213 214 216 217 218 219 221 224 227 229 230 230 231 232 231 231 231 231 232 234 233 233 233 232 236 238 233 230 232 231 228 231 235 233 228 224 223 226 230 235 240 245 251 255 256 258 259 259 265 270 271 277 286 292 297 297 294 291 288 287 284 278 271 271 278 289 294 292 289 293 301 309 310 309 311 311 307 301 299 297 297 299 299 297
212 213 213 214 215 217 218 221 224 227 229 230 230 232 233 233 233 233 232 234 234 234 234 234 232 235 236 232 229 229 226 224 228 230 226 220 217 219 223 228 235 240 245 252 257 260 263 266 267 274 281 284 285 288 292 294 292 289 287 288 289 286 280 277 278 283 289 294 294 288 283 298 309 308 306 310 310 304 300 297 295 296 296 295 294
213 213 213 213 214 216 218 221 223 226 228 229 231 232 233 234 235 234 233 232 232 233 234 235 236 237 235 231 228 224 221 224 227 224 220 218 217 217 220 229 238 244 249 257 265 271 276 277 277 283 289 290 287 285 285 285 285 284 283 285 285 283 281 280 281 286 292 297 300 290 279 299 311 304 302 309 309 304 303 301 299 300 298 298 301
213 213 213 213 214 215 218 220 222 226 228 230 232 233 234 235 235 233 231 229 229 231 233 235 237 237 233 230 225 219 219 227 227 221 220 221 218 217 223 232 240 247 256 266 275 284 289 291 292 291 290 288 285 282 284 286 285 286 283 281 281 279 281 285 288 295 302 306 308 298 279 292 306 298 296 304 306 303 303 303 303 304 304 309 315
211 212 212 213 213 215 217 218 221 224 227 230 232 233 234 235 233 230 228 226 225 228 232 234 235 235 234 230 221 215 224 230 226 221 223 223 219 221 226 233 240 251 263 272 279 284 288 293 295 290 284 284 281 280 285 289 289 289 285 283 284 282 283 287 289 298 309 314 314 303 274 278 296 294 294 302 305 303 304 306 308 311 315 317 317
210 211 211 212 214 215 216 217 219 221 225 229 231 232 234 234 230 227 226 224 222 225 229 232 233 234 234 226 216 218 232 233 226 222 221 219 218 222 227 233 244 255 264 273 281 286 294 300 293 276 270 279 286 289 291 290 288 285 281 279 279 275 276 276 276 289 304 309 311 302 268 276 295 297 297 301 301 299 301 306 310 314 318 319 317
210 211 211 212 214 215 216 217 219 220 224 228 230 231 232 230 227 226 224 219 218 221 224 227 229 230 230 222 215 223 233 228 220 217 216 217 221 223 228 235 244 254 264 276 285 292 298 295 278 269 278 289 295 299 298 294 290 284 277 273 269 266 276 285 287 290 291 300 312 307 282 285 298 301 298 297 293 297 301 302 305 311 316 318 318